Terminal Aerodrome Forecast
Issued by NWS

Home | Current Version | Previous Version | Text Only | Print | Product List | Glossary On
Versions: 1 2 3 4 5 6 7 8 9 10 11 12 13 14 15 16 17 18 19 20 21 22 23 24 25 26
000
FTUS44 KBMX 222300
TAFEET
TAF
KEET 222326Z 2300/2324 11006KT P6SM VCTS SCT035CB BKN100
     FM230200 00000KT 6SM BR VCSH BKN035 BKN100
     FM230800 00000KT 4SM BR SCT008 BKN012
      TEMPO 2310/2312 2SM BR OVC006
     FM231500 23004KT P6SM SCT015 BKN025
     FM231900 24004KT P6SM VCTS BKN040CB=

USA.gov is the U.S. government's official web portal to all federal, state and local government web resources and services.